FW9987 Weather Reports


time (UTC)temp
F
wind
direction
speed
knots
gust
knots
rain 1hr
in
rain 24hr
in
rain mn
in
humidity
%
barometer
mb
20260508043059 44 243 0.9 7.0 0.00 0.00 0.00 54 1022.5
20260508041556 44 153 3.5 12.2 0.00 0.00 0.00 53 1022.5
20260508040051 44 0 0.0 3.5 0.00 0.00 0.00 51 1022.5
20260508034554 45 0 0.0 3.5 0.00 0.00 0.00 49 1022.4
20260508033050 46 236 0.9 7.0 0.00 0.00 0.00 48 1022.1
20260508031551 47 248 2.6 16.5 0.00 0.00 0.00 46 1022.0
20260508030054 47 338 5.2 13.9 0.00 0.00 0.00 45 1021.6
20260508024551 46 242 0.9 4.3 0.00 0.00 0.00 45 1021.5
20260508023052 46 215 2.6 4.3 0.00 0.00 0.00 43 1021.3
20260508021553 46 206 1.7 4.3 0.00 0.00 0.00 42 1021.1
20260508020053 47 0 0.0 5.2 0.00 0.00 0.00 40 1020.9
20260508014553 48 290 2.6 9.6 0.00 0.00 0.00 38 1020.9
20260508013054 49 215 5.2 10.4 0.00 0.00 0.00 37 1020.9
20260508011553 49 270 4.3 11.3 0.00 0.00 0.00 39 1020.8
20260508010050 48 161 3.5 11.3 0.00 0.00 0.00 40 1020.7
20260508004550 49 328 3.5 13.0 0.00 0.00 0.00 38 1020.6
20260508003100 51 272 5.2 17.4 0.00 0.00 0.00 36 1020.7
20260508001553 52 163 7.8 15.6 0.00 0.00 0.00 35 1020.6
20260508000053 50 329 5.2 14.8 0.00 0.00 0.00 35 1020.7
20260507234554 51 151 6.1 15.6 0.00 0.00 0.00 35 1020.5
20260507233056 53 329 8.7 17.4 0.00 0.00 0.00 35 1020.6
20260507231556 52 259 7.0 14.8 0.00 0.00 0.00 36 1020.4
20260507230059 51 244 3.5 13.9 0.00 0.00 0.00 38 1020.5
20260507224613 51 287 5.2 14.8 0.00 0.00 0.00 36 1020.6
20260507223054 53 300 5.2 17.4 0.00 0.00 0.00 33 1020.6
20260507221551 53 346 6.1 14.8 0.00 0.00 0.00 36 1020.5
20260507220048 54 299 7.8 17.4 0.00 0.00 0.00 37 1020.7
20260507214553 52 219 6.1 16.5 0.00 0.00 0.00 40 1020.8
20260507213049 50 274 8.7 22.6 0.00 0.00 0.00 41 1021.2
20260507211609 51 294 6.1 17.4 0.00 0.00 0.00 40 1021.2
20260507210046 50 294 9.6 15.6 0.00 0.00 0.00 38 1021.3
20260507204557 51 155 5.2 12.2 0.00 0.01 0.00 40 1021.3
20260507203048 50 320 10.4 16.5 0.00 0.01 0.00 39 1021.4
20260507201601 52 313 5.2 15.6 0.00 0.01 0.00 37 1021.7
20260507200059 53 246 4.3 13.9 0.00 0.01 0.00 42 1021.7
20260507194553 54 304 6.1 13.9 0.00 0.07 0.00 38 1021.8
20260507193045 53 238 7.8 15.6 0.00 0.07 0.00 38 1021.7
20260507191551 52 213 5.2 17.4 0.00 0.07 0.00 41 1021.9
20260507190050 52 270 5.2 18.2 0.00 0.07 0.00 40 1022.0
20260507184548 50 324 5.2 13.9 0.00 0.22 0.00 45 1022.0
20260507183051 48 314 6.1 13.0 0.00 0.22 0.00 44 1022.4
20260507181549 48 306 6.1 15.6 0.00 0.22 0.00 44 1022.3
20260507180051 48 312 5.2 12.2 0.00 0.22 0.00 47 1022.4
20260507174550 47 0 0.9 7.0 0.00 0.22 0.00 50 1022.6
20260507173047 45 277 0.9 5.2 0.00 0.22 0.00 52 1022.7
20260507171558 43 302 3.5 10.4 0.00 0.22 0.00 53 1022.9
20260507170052 43 347 6.1 11.3 0.00 0.22 0.00 55 1023.2
20260507164559 43 306 2.6 12.2 0.00 0.22 0.00 60 1023.4
20260507163049 43 325 3.5 9.6 0.00 0.22 0.00 59 1023.4
20260507161551 42 307 3.5 11.3 0.00 0.22 0.00 61 1023.6
20260507160049 41 207 2.6 7.0 0.00 0.22 0.00 65 1023.6
20260507154555 40 217 4.3 9.6 0.00 0.22 0.00 57 1023.6
20260507153053 39 259 2.6 10.4 0.00 0.22 0.00 62 1023.7
20260507151551 37 175 4.3 7.8 0.00 0.22 0.00 63 1023.6
20260507150050 35 231 1.7 7.8 0.00 0.22 0.00 67 1023.7
20260507144552 34 116 4.3 11.3 0.00 0.22 0.00 63 1023.6
20260507143054 35 33 2.6 4.3 0.00 0.22 0.00 58 1023.7
20260507141550 34 360 0.9 3.5 0.00 0.22 0.00 60 1023.8
20260507140101 32 153 0.9 4.3 0.00 0.22 0.00 68 1023.9
20260507134553 31 0 1.7 3.5 0.00 0.22 0.00 69 1023.8
20260507133048 33 188 0.9 3.5 0.00 0.22 0.00 65 1023.6
20260507131552 31 0 0.0 0.0 0.00 0.22 0.00 62 1023.6
20260507130051 27 0 0.0 0.0 0.00 0.22 0.00 67 1023.7
20260507124553 26 0 0.0 0.0 0.00 0.22 0.00 69 1023.6
20260507123049 25 0 0.0 0.0 0.00 0.22 0.00 70 1023.4
20260507121552 23 0 0.0 0.0 0.00 0.22 0.00 71 1023.1
20260507120045 23 0 0.0 0.0 0.00 0.22 0.00 70 1023.1
20260507114550 24 0 0.0 0.0 0.00 0.22 0.00 68 1023.2
20260507113048 25 0 0.0 0.0 0.00 0.22 0.00 68 1023.1
20260507111547 26 0 0.0 0.0 0.00 0.22 0.00 64 1023.1
20260507110051 25 0 0.0 0.0 0.00 0.22 0.00 67 1023.1
20260507104553 22 0 0.0 0.0 0.00 0.22 0.00 75 1023.2
20260507103048 22 0 0.0 0.0 0.00 0.22 0.00 74 1023.0
20260507101606 22 0 0.0 0.0 0.00 0.22 0.00 75 1023.1
20260507100053 23 0 0.0 0.0 0.00 0.22 0.00 77 1022.9
20260507094556 23 0 0.0 0.0 0.00 0.22 0.00 78 1023.1
20260507093048 23 0 0.0 0.0 0.00 0.22 0.00 75 1023.0
20260507091600 23 0 0.0 0.0 0.00 0.22 0.00 77 1023.2
20260507090110 23 0 0.0 0.0 0.00 0.22 0.00 77 1023.2
20260507084554 24 0 0.0 0.0 0.00 0.22 0.00 77 1023.2
20260507083046 23 0 0.0 0.0 0.00 0.22 0.00 81 1023.3
20260507081556 23 0 0.0 0.0 0.00 0.22 0.00 81 1023.1
20260507080049 23 0 0.0 0.0 0.00 0.22 0.00 79 1023.2
20260507074549 24 0 0.0 0.0 0.00 0.22 0.00 80 1023.1
20260507073058 24 0 0.0 0.0 0.00 0.22 0.00 81 1023.1
20260507071556 24 0 0.0 0.0 0.00 0.22 0.00 83 1023.2
20260507070119 24 0 0.0 0.0 0.00 0.22 0.00 82 1023.3
20260507064553 26 0 0.0 0.0 0.00 0.22 0.00 78 1023.2
20260507063046 27 0 0.0 0.0 0.00 0.22 0.00 74 1023.1
20260507061549 27 0 0.0 0.0 0.00 0.22 0.00 73 1023.1
20260507060046 27 0 0.0 0.0 0.00 0.22 0.00 76 1022.8
20260507054554 26 0 0.0 0.0 0.00 0.22 0.22 79 1022.4
20260507053053 26 0 0.0 0.0 0.00 0.22 0.22 81 1022.4
20260507051551 26 0 0.0 0.0 0.00 0.22 0.22 84 1022.4
20260507050050 27 0 0.0 0.0 0.00 0.22 0.22 83 1022.0
20260507044551 27 0 0.0 0.0 0.00 0.22 0.22 85 1022.3